Location: Devargunta
(16.7631°N, 80.9077°E)
Time: 11:06:44
(UTC+00:00)

Cosmos 540 Rocket - Pass Details

Date: 03 December 2021
Orbit: 739 x 754 km, 74.1° (Epoch: 16 January)

Event Time Altitude Azimuth Distance (km) Brightness Sun altitude
Rises 12:51:19 0° 237° (WSW) 3,165 8.5 -11.9°
Reaches altitude 10° 12:55:18 10° 268° (W) 2,242 7.2 -12.8°
Maximum altitude 12:57:08 12° 289° (WNW) 2,116 6.6 -13.2°
Drops below altitude 10° 12:58:58 10° 311° (NW) 2,242 6.3 -13.6°
Sets 13:02:59 0° 342° (NNW) 3,166 6.7 -14.5°
